[[{"header":{"parameterUnit":"m.s-1","parameterCategory":2,"la1":30.2991,"la2":30.254,"lo1":-89.0895,"lo2":-89.0444,"dy":0.0017,"dx":0.0017,"nx":28,"ny":28,"refTime":"2023-10-29T21:00:00:Z","depth":"0","parameterNumber":2,"parameterNumberName":"U-component_of_CURRENTS"},"data":[0,0,0,0,0,0,0,0,0,0,0,0,0,0,0,0,0,0,0,0,0,0,0,0,0,0,0,0,0,0,0,0,0,0,0,0,0,0,0,0,0,0,0,0,0,0,0,0,0,0,0,0,0,0,0,0,0,0,0.3098,0.3098,0,0.3138,0.3139,0.3139,0.3128,0.3128,0.3128,0.3127,0.3117,0.3117,0.3117,0,0,0,0,0,0,0,0,0,0,0,0,0,0.3011,0.3012,0.3098,0.3099,0.3099,0.3138,0.3139,0.3139,0.3128,0.3128,0.3127,0.3127,0.3117,0.3117,0.3117,0,0,0,0,0,0,0,0,0,0,0,0,0,0.3046,0.3013,0.3097,0.3102,0.3103,0.3138,0.3139,0.3139,0.3129,0.3128,0.3127,0.3127,0.3117,0.3117,0.3117,0.3131,0,0,0.3117,0.3118,0,0,0,0,0,0,0,0,0.3044,0.3048,0.31,0.3102,0.3103,0.3131,0.3104,0.3135,0.3129,0.3115,0.3127,0.3126,0.312,0.312,0.3124,0.313,0.313,0.3118,0.3118,0.3118,0.3118,0,0,0,0,0,0,0,0.3041,0.3047,0.311,0.3102,0.3103,0.3102,0.3106,0.311,0.3116,0.3116,0.3116,0.3127,0.312,0.3124,0.3123,0.313,0.3117,0.3118,0.3118,0.3118,0.3174,0.3176,0,0,0,0,0,0,0.3046,0.3045,0.3108,0.3111,0.3076,0.3105,0.3109,0.312,0.3117,0.3118,0.3128,0.3127,0.3124,0.3123,0.3123,0.316,0.3118,0.3118,0.3118,0.3173,0.3175,0.3176,0,0,0,0,0,0,0.3044,0.3051,0.3107,0.3082,0.309,0.3107,0.3119,0.3121,0.3129,0.3128,0.3126,0.3135,0.3123,0.3123,0.3135,0.3159,0.3118,0.3118,0.3171,0.3173,0.3175,0.3221,0,0,0,0,0,0,0.3041,0.305,0.3057,0.3082,0.3091,0.3134,0.312,0.3122,0.3139,0.3138,0.3134,0.3132,0.3123,0.3135,0.3135,0.3158,0.3118,0.317,0.3172,0.3175,0.3218,0.3225,0.3231,0,0,0,0,0,0.3038,0.305,0.3057,0.3065,0.3101,0.3136,0.314,0.3147,0.314,0.315,0.3148,0.3132,0.3152,0.3136,0.3136,0.316,0.3168,0.3171,0.3175,0.3215,0.3224,0.323,0,0,0,0,0,0,0.3011,0.3052,0.306,0.3082,0.3111,0.3135,0.3148,0.3153,0.316,0.3157,0.3147,0.3146,0.3171,0.316,0.3143,0.3186,0.3159,0.3163,0.3191,0.3198,0.3204,0.3219,0.3118,0,0,0,0,0,0.3013,0.3034,0.3071,0.309,0.3107,0.3129,0.3143,0.3152,0.3165,0.3167,0.3166,0.3169,0.3185,0.3185,0.3196,0.3212,0.3225,0.323,0.3236,0.3241,0.3255,0.3297,0.3308,0.3186,0.3186,0.3186,0,0,0.3007,0.3034,0.3044,0.3087,0.3108,0.3141,0.3134,0.3163,0.3187,0.3165,0.3188,0.3193,0.3197,0.3222,0.3231,0.3212,0.3284,0.3245,0.3249,0.326,0.3301,0.3313,0.3324,0.3189,0.3188,0.3188,0,0,0.3013,0.3034,0.3057,0.3087,0.313,0.3149,0.3161,0.3192,0.3202,0.3226,0.3226,0.3247,0.3253,0.3271,0.3278,0.3325,0.3321,0.3326,0.336,0.3401,0.3412,0.3421,0.3455,0.3467,0.3321,0.3321,0.3321,0,0.3004,0.3042,0.3068,0.3102,0.3131,0.3156,0.319,0.3211,0.3239,0.3258,0.3237,0.3286,0.3282,0.3333,0.3347,0.334,0.3359,0.3329,0.341,0.3419,0.3428,0.3461,0.3474,0.3324,0.3323,0.3323,0.3323,0,0.3031,0.3064,0.3083,0.3137,0.3168,0.3203,0.3244,0.3273,0.3285,0.3303,0.3352,0.3354,0.3385,0.3387,0.3377,0.3444,0.3437,0.3418,0.3389,0.3443,0.3474,0.3487,0.3327,0.3326,0.3326,0.3325,0,0,0.3005,0.3086,0.3093,0.3121,0.3192,0.3216,0.3275,0.3333,0.3368,0.3391,0.3438,0.3466,0.3472,0.3482,0.3481,0.3507,0.3579,0.3487,0.3488,0.352,0.3672,0.3708,0.3724,0.3573,0.3575,0.3577,0.367,0,0.3021,0.308,0.3124,0.3181,0.3215,0.3271,0.3318,0.3371,0.3411,0.346,0.3488,0.3524,0.3507,0.3521,0.3554,0.3581,0.3613,0.3555,0.3617,0.3619,0.3644,0.3741,0.3728,0.3814,0.3682,0.3684,0.3685,0,0.3034,0.3074,0.3131,0.3204,0.3224,0.3262,0.335,0.3397,0.3484,0.3509,0.3569,0.3593,0.3662,0.3618,0.3711,0.3676,0.3684,0.369,0.3693,0.3722,0.368,0.374,0.3841,0.3843,0.3704,0.3702,0.3701,0,0.2996,0.3076,0.3119,0.3147,0.3234,0.3273,0.3322,0.3411,0.3466,0.3549,0.3598,0.3671,0.3721,0.3755,0.3797,0.3756,0.3887,0.3828,0.3869,0.387,0.3871,0.387,0.3982,0.3887,0.3886,0.3886,0.3886,0,0.2994,0.3026,0.3102,0.3126,0.3172,0.3243,0.3308,0.337,0.3478,0.355,0.362,0.3706,0.3758,0.3845,0.3845,0.393,0.3937,0.3911,0.3914,0.3887,0.3886,0.3894,0.3868,0.389,0.3889,0.3888,0.3888,0,0.2947,0.3003,0.305,0.3134,0.3157,0.3188,0.3298,0.3354,0.3457,0.3565,0.36,0.376,0.3884,0.3942,0.4015,0.4012,0.3997,0.4072,0.4042,0.4041,0.4064,0.4039,0.3933,0.3786,0.4136,0.4137,0.4139,0,0.2928,0.2949,0.303,0.3056,0.3096,0.3154,0.3203,0.332,0.3397,0.3604,0.3663,0.3839,0.396,0.412,0.4167,0.422,0.4069,0.4199,0.4116,0.4108,0.4082,0.3857,0.372,0.413,0.4131,0.4132,0.4133,0,0.2882,0.2915,0.2952,0.3002,0.3053,0.3107,0.3195,0.3247,0.3403,0.3526,0.3714,0.3841,0.4065,0.4168,0.4266,0.428,0.4079,0.4221,0.4224,0.412,0.3869,0.3715,0.4016,0.4142,0.4141,0.414,0.414,0.414,0.2837,0.2845,0.2893,0.2939,0.2991,0.3039,0.3055,0.3184,0.33,0.3472,0.3661,0.3859,0.4127,0.4305,0.4277,0.4338,0.4156,0.4272,0.4253,0.403,0.3863,0.4195,0.4315,0.4315,0.4315,0.4315,0.4315,0,0.2762,0.2787,0.2827,0.2865,0.2883,0.295,0.3031,0.3049,0.3148,0.3421,0.3588,0.3951,0.4136,0.4308,0.4522,0.443,0.4124,0.4327,0.4031,0.3893,0.4253,0.4235,0.433,0.433,0.433,0.433,0.433,0.433,0.2724,0.2727,0.2753,0.2746,0.2773,0.276,0.2784,0.2855,0.3028,0.3294,0.3563,0.3799,0.4285,0.4692,0.4752,0.4602,0.4204,0.4068,0.3916,0.4279,0.4271,0.4263,0.4243,0.4338,0.4338,0.3412,0.3407,0.3402]},{"header":{"parameterUnit":"m.s-1","parameterCategory":2,"la1":30.2991,"la2":30.254,"lo1":-89.0895,"lo2":-89.0444,"dy":0.0017,"dx":0.0017,"nx":28,"ny":28,"refTime":"2023-10-29T21:00:00:Z","depth":"0","parameterNumber":3,"parameterNumberName":"V-component_of_CURRENTS"},"data":[0,0,0,0,0,0,0,0,0,0,0,0,0,0,0,0,0,0,0,0,0,0,0,0,0,0,0,0,0,0,0,0,0,0,0,0,0,0,0,0,0,0,0,0,0,0,0,0,0,0,0,0,0,0,0,0,0,0,-0.0257,-0.0258,0,-0.0321,-0.0322,-0.0323,-0.037,-0.037,-0.0371,-0.0371,-0.0456,-0.0458,-0.046,0,0,0,0,0,0,0,0,0,0,0,0,0,-0.0236,-0.0236,-0.0257,-0.0258,-0.0259,-0.0321,-0.0322,-0.0323,-0.037,-0.037,-0.0371,-0.0371,-0.0455,-0.0458,-0.046,0,0,0,0,0,0,0,0,0,0,0,0,0,-0.0268,-0.0236,-0.0257,-0.0289,-0.0293,-0.0321,-0.0322,-0.0323,-0.037,-0.0371,-0.0371,-0.0371,-0.0455,-0.0457,-0.046,-0.0468,0,0,-0.0469,-0.047,0,0,0,0,0,0,0,0,-0.0266,-0.0268,-0.0284,-0.0287,-0.0291,-0.0337,-0.0345,-0.0372,-0.037,-0.0342,-0.0371,-0.0372,-0.0417,-0.0423,-0.0435,-0.0472,-0.0475,-0.0469,-0.0471,-0.0472,-0.0473,0,0,0,0,0,0,0,-0.0263,-0.0266,-0.0283,-0.0284,-0.0289,-0.0321,-0.0325,-0.0351,-0.0377,-0.0344,-0.0347,-0.0353,-0.042,-0.0432,-0.0437,-0.0477,-0.0469,-0.0472,-0.0474,-0.0475,-0.0515,-0.0515,0,0,0,0,0,0,-0.025,-0.0264,-0.0281,-0.0285,-0.0278,-0.032,-0.0326,-0.0323,-0.0376,-0.0384,-0.0352,-0.0355,-0.0427,-0.0434,-0.0441,-0.0437,-0.0472,-0.0475,-0.0477,-0.0516,-0.0515,-0.0515,0,0,0,0,0,0,-0.0249,-0.0251,-0.0279,-0.0276,-0.0282,-0.0319,-0.0316,-0.0324,-0.0333,-0.0382,-0.0391,-0.0353,-0.0428,-0.0437,-0.0458,-0.0441,-0.0476,-0.0479,-0.0517,-0.0516,-0.0515,-0.0439,0,0,0,0,0,0,-0.0248,-0.025,-0.0242,-0.0275,-0.0281,-0.0284,-0.0316,-0.0324,-0.0335,-0.0339,-0.0386,-0.0395,-0.0429,-0.0453,-0.0461,-0.0446,-0.0481,-0.0518,-0.0516,-0.0515,-0.0443,-0.0436,-0.043,0,0,0,0,0,-0.0247,-0.0227,-0.0241,-0.0244,-0.027,-0.0283,-0.0289,-0.0319,-0.0334,-0.0331,-0.0366,-0.0393,-0.0451,-0.0455,-0.0464,-0.0449,-0.0518,-0.0517,-0.0515,-0.0445,-0.0437,-0.043,0,0,0,0,0,0,-0.0212,-0.0231,-0.0247,-0.0234,-0.0254,-0.029,-0.0289,-0.0311,-0.0336,-0.0338,-0.0388,-0.0399,-0.0411,-0.044,-0.0444,-0.0457,-0.0488,-0.0488,-0.0431,-0.0424,-0.0418,-0.0395,-0.0484,0,0,0,0,0,-0.02,-0.0192,-0.022,-0.021,-0.0216,-0.0252,-0.0261,-0.0279,-0.0307,-0.0318,-0.0354,-0.0387,-0.0412,-0.0425,-0.0453,-0.0461,-0.0498,-0.0456,-0.045,-0.0444,-0.0432,-0.0478,-0.0475,-0.051,-0.051,-0.051,0,0,-0.0185,-0.0194,-0.019,-0.0203,-0.0221,-0.0214,-0.0258,-0.0262,-0.0255,-0.0323,-0.0326,-0.0367,-0.041,-0.0419,-0.0427,-0.0441,-0.0454,-0.0442,-0.0437,-0.0428,-0.0476,-0.0473,-0.047,-0.0509,-0.0509,-0.0509,0,0,-0.0144,-0.0156,-0.0135,-0.0146,-0.0163,-0.0181,-0.0177,-0.0209,-0.0222,-0.0235,-0.0279,-0.0309,-0.0348,-0.0375,-0.0393,-0.0368,-0.042,-0.0376,-0.0325,-0.037,-0.0367,-0.0366,-0.0409,-0.0411,-0.0371,-0.0371,-0.0371,0,-0.0124,-0.0102,-0.0132,-0.0116,-0.0115,-0.0159,-0.0135,-0.0153,-0.0188,-0.0194,-0.0223,-0.0283,-0.0324,-0.0333,-0.0328,-0.0352,-0.0388,-0.035,-0.0361,-0.036,-0.036,-0.0405,-0.0409,-0.0367,-0.0368,-0.0368,-0.0368,0,-0.0072,-0.0055,-0.0042,-0.0034,-0.0038,-0.0023,-0.005,-0.0053,-0.0079,-0.0107,-0.0129,-0.0192,-0.0226,-0.0246,-0.0281,-0.029,-0.032,-0.0349,-0.0379,-0.0352,-0.0401,-0.0406,-0.0362,-0.0363,-0.0364,-0.0365,0,0,-0.0018,-0.0006,0.0001,0.0021,0.0009,0.0019,0.0031,0.003,0.0045,-0.0009,-0.0004,-0.0065,-0.0111,-0.0134,-0.0186,-0.0228,-0.0265,-0.0281,-0.0285,-0.032,-0.0364,-0.038,-0.0388,-0.0299,-0.03,-0.03,-0.04,0,0.0036,0.009,0.0077,0.0132,0.0159,0.0129,0.0152,0.014,0.011,0.0101,0.0029,0.0008,-0.0063,-0.008,-0.0133,-0.0226,-0.0275,-0.0234,-0.0388,-0.0393,-0.0407,-0.0393,-0.0391,-0.048,-0.0406,-0.0407,-0.0408,0,0.0098,0.0127,0.0191,0.0228,0.0238,0.0264,0.0289,0.0298,0.0267,0.0238,0.0189,0.0127,0.0067,-0.0004,-0.015,-0.0121,-0.0232,-0.0316,-0.0322,-0.0364,-0.0418,-0.0496,-0.0493,-0.0734,-0.0417,-0.0416,-0.0416,0,0.0165,0.0211,0.0271,0.0281,0.0312,0.0341,0.0355,0.0344,0.0366,0.0319,0.0322,0.0224,0.0189,0.0042,-0.0132,-0.0143,-0.0302,-0.0342,-0.0462,-0.0465,-0.0506,-0.0511,-0.0749,-0.0451,-0.0451,-0.0451,-0.0451,0,0.0236,0.0283,0.0312,0.0347,0.0428,0.0415,0.0485,0.0476,0.0477,0.0519,0.0399,0.041,0.0198,0.0082,-0.0095,-0.0287,-0.0279,-0.0447,-0.0489,-0.0479,-0.0481,-0.0726,-0.0878,-0.0455,-0.0454,-0.0453,-0.0452,0,0.0302,0.0319,0.0392,0.0442,0.0465,0.0521,0.058,0.0629,0.0606,0.0656,0.065,0.055,0.0406,0.018,-0.0056,-0.0223,-0.0574,-0.0497,-0.0469,-0.0505,-0.0826,-0.0972,-0.1276,-0.141,-0.0635,-0.0636,-0.0637,0,0.0341,0.039,0.0469,0.0521,0.0549,0.0623,0.0688,0.0697,0.075,0.0757,0.0799,0.0677,0.0626,0.0266,-0.0064,-0.0378,-0.0622,-0.0591,-0.0611,-0.0841,-0.1037,-0.1155,-0.1254,-0.0644,-0.0645,-0.0645,-0.0646,0,0.0421,0.045,0.051,0.0618,0.07,0.0786,0.0871,0.0939,0.0965,0.101,0.1053,0.1014,0.0678,0.0375,-0.007,-0.0307,-0.0791,-0.0612,-0.0867,-0.1074,-0.1204,-0.1352,-0.0587,-0.0652,-0.0651,-0.0651,-0.065,-0.065,0.0482,0.0537,0.0622,0.0726,0.0822,0.0941,0.1028,0.1126,0.1238,0.1327,0.1271,0.1274,0.0792,0.0198,-0.0179,-0.0837,-0.0858,-0.1015,-0.1176,-0.1275,-0.1406,-0.0645,-0.0744,-0.0744,-0.0744,-0.0744,-0.0744,0,0.0553,0.0617,0.0721,0.0848,0.0964,0.0997,0.1151,0.1246,0.14,0.1507,0.1548,0.1339,0.0736,0.011,-0.0766,-0.1275,-0.1503,-0.1577,-0.1762,-0.1838,-0.1167,-0.1166,-0.134,-0.134,-0.134,-0.134,-0.1339,-0.1339,0.0593,0.0702,0.0756,0.0952,0.1042,0.12,0.1294,0.1437,0.1554,0.1686,0.1724,0.169,0.1213,-0.0398,-0.1568,-0.1865,-0.2263,-0.2361,-0.2568,-0.2121,-0.2081,-0.2043,-0.2076,-0.2439,-0.244,-0.3162,-0.3169,-0.3175]}],[{"header":{"parameterUnit":"m.s-1","parameterCategory":2,"la1":30.2991,"la2":30.254,"lo1":-89.0895,"lo2":-89.0444,"dy":0.0017,"dx":0.0017,"nx":28,"ny":28,"refTime":"2023-10-29T21:00:00:Z","depth":"2","parameterNumber":2,"parameterNumberName":"U-component_of_CURRENTS"},"data":[0,0,0,0,0,0,0,0,0,0,0,0,0,0,0,0,0,0,0,0,0,0,0,0,0,0,0,0,0,0,0,0,0,0,0,0,0,0,0,0,0,0,0,0,0,0,0,0,0,0,0,0,0,0,0,0,0,0,0.3056,0.3056,0,0.3096,0.3096,0.3096,0.3088,0.3087,0.3087,0.3087,0.3078,0.3078,0.3079,0,0,0,0,0,0,0,0,0,0,0,0,0,0.2971,0.2972,0.3056,0.3057,0.3057,0.3096,0.3096,0.3096,0.3088,0.3087,0.3087,0.3086,0.3078,0.3078,0.3079,0,0,0,0,0,0,0,0,0,0,0,0,0,0.3005,0.2972,0.3056,0.3061,0.3062,0.3096,0.3096,0.3096,0.3088,0.3087,0.3087,0.3086,0.3078,0.3078,0.3079,0.3091,0,0,0.3079,0.3079,0,0,0,0,0,0,0,0,0.3003,0.3008,0.3059,0.3061,0.3062,0.309,0.3063,0.3093,0.3088,0.3074,0.3087,0.3086,0.3081,0.3081,0.3084,0.3091,0.309,0.3079,0.3079,0.3079,0.3079,0,0,0,0,0,0,0,0.3001,0.3006,0.3067,0.306,0.3062,0.3061,0.3065,0.3069,0.3076,0.3075,0.3075,0.3087,0.308,0.3084,0.3084,0.309,0.3079,0.3079,0.308,0.308,0.3136,0.3138,0,0,0,0,0,0,0.3005,0.3004,0.3066,0.3069,0.3035,0.3064,0.3068,0.3078,0.3077,0.3078,0.3087,0.3086,0.3084,0.3084,0.3084,0.3122,0.3079,0.308,0.308,0.3135,0.3136,0.3138,0,0,0,0,0,0,0.3003,0.301,0.3065,0.304,0.3048,0.3066,0.3078,0.3079,0.3089,0.3087,0.3086,0.3096,0.3084,0.3083,0.3097,0.3121,0.308,0.308,0.3133,0.3135,0.3137,0.3184,0,0,0,0,0,0,0.3,0.3009,0.3017,0.3041,0.305,0.3092,0.3079,0.3081,0.3098,0.3097,0.3095,0.3093,0.3083,0.3097,0.3097,0.312,0.308,0.3131,0.3134,0.3137,0.3181,0.3187,0.3193,0,0,0,0,0,0.2997,0.301,0.3017,0.3025,0.306,0.3093,0.3097,0.3105,0.3099,0.3109,0.3108,0.3093,0.3114,0.3098,0.3098,0.3122,0.313,0.3133,0.3136,0.3178,0.3186,0.3193,0,0,0,0,0,0,0.2972,0.3011,0.3019,0.3042,0.307,0.3093,0.3107,0.3112,0.312,0.3118,0.3107,0.3106,0.3132,0.3121,0.3104,0.3148,0.3121,0.3125,0.3153,0.316,0.3167,0.3181,0.308,0,0,0,0,0,0.2974,0.2995,0.3031,0.305,0.3067,0.3088,0.3102,0.3111,0.3124,0.3127,0.3126,0.313,0.3146,0.3147,0.3157,0.3174,0.3186,0.3192,0.3198,0.3203,0.3217,0.3258,0.3269,0.3148,0.3148,0.3148,0,0,0.2969,0.2995,0.3006,0.3047,0.3068,0.31,0.3094,0.3123,0.3146,0.3125,0.3149,0.3154,0.3158,0.3183,0.3193,0.3174,0.3245,0.3207,0.3212,0.3222,0.3262,0.3274,0.3284,0.315,0.315,0.315,0,0,0.2975,0.2997,0.3019,0.3048,0.3091,0.311,0.3122,0.3152,0.3162,0.3187,0.3187,0.3208,0.3216,0.3232,0.3239,0.3287,0.3283,0.3288,0.3323,0.3363,0.3373,0.3382,0.3416,0.3428,0.3283,0.3284,0.3284,0,0.2968,0.3004,0.303,0.3064,0.3092,0.3117,0.3151,0.3171,0.3199,0.3218,0.3199,0.3247,0.3244,0.3294,0.3308,0.3302,0.3321,0.3291,0.3371,0.338,0.3389,0.3421,0.3434,0.3286,0.3286,0.3286,0.3285,0,0.2994,0.3027,0.3046,0.3099,0.313,0.3164,0.3204,0.3234,0.3246,0.3264,0.3313,0.3315,0.3346,0.3349,0.3339,0.3405,0.3398,0.3379,0.3351,0.3404,0.3434,0.3447,0.329,0.3289,0.3288,0.3288,0,0,0.297,0.3049,0.3056,0.3084,0.3153,0.3177,0.3235,0.3292,0.3328,0.335,0.3398,0.3426,0.3433,0.3443,0.3443,0.3468,0.3539,0.3449,0.345,0.3481,0.363,0.3662,0.3678,0.3533,0.3535,0.3537,0.3628,0,0.2985,0.3043,0.3087,0.3143,0.3176,0.3231,0.3277,0.333,0.337,0.3419,0.3447,0.3483,0.3468,0.3482,0.3515,0.3541,0.3573,0.3516,0.3576,0.3578,0.3598,0.3694,0.336,0.3417,0.3639,0.3641,0.3643,0,0.2998,0.3038,0.3094,0.3166,0.3186,0.3224,0.331,0.3357,0.3442,0.3468,0.3528,0.3552,0.3621,0.3578,0.3669,0.3635,0.3643,0.3649,0.3652,0.3676,0.3633,0.34,0.343,0.3663,0.3661,0.366,0.3658,0,0.2962,0.304,0.3083,0.311,0.3196,0.3235,0.3283,0.3371,0.3426,0.3509,0.3558,0.363,0.368,0.3713,0.3754,0.3714,0.3842,0.3783,0.382,0.3821,0.3548,0.3523,0.3841,0.3841,0.3841,0.384,0.384,0,0.296,0.2992,0.3067,0.3091,0.3136,0.3207,0.3272,0.3333,0.344,0.3512,0.3581,0.3664,0.3717,0.3802,0.3802,0.3882,0.3891,0.3862,0.3863,0.3558,0.3534,0.3747,0.3735,0.3844,0.3843,0.3842,0.3842,0,0.2915,0.297,0.3017,0.31,0.3122,0.3154,0.3263,0.3319,0.3421,0.3528,0.3563,0.3719,0.3838,0.3896,0.3967,0.3962,0.4007,0.4017,0.3668,0.363,0.3938,0.3927,0.4071,0.4073,0.4075,0.4077,0.4078,0,0.2896,0.2917,0.2997,0.3024,0.3063,0.3121,0.317,0.3286,0.3362,0.3565,0.3623,0.3794,0.3902,0.4057,0.4039,0.4072,0.4098,0.3802,0.3677,0.3983,0.397,0.3956,0.3943,0.3313,0.3308,0.3304,0.33,0,0.2852,0.2884,0.2921,0.2971,0.3022,0.3075,0.3162,0.3214,0.3367,0.3478,0.3659,0.3774,0.3936,0.3851,0.3918,0.3884,0.3775,0.3729,0.4125,0.3343,0.3286,0.3268,0.3275,0.3264,0.3267,0.327,0.3272,0.3273,0.2807,0.2816,0.2863,0.2909,0.296,0.3007,0.3022,0.3103,0.3201,0.3283,0.3522,0.3553,0.3624,0.3574,0.3508,0.3447,0.3698,0.3505,0.3508,0.3518,0.3452,0.3405,0.3391,0.3395,0.3399,0.3402,0.3405,0,0.2715,0.2759,0.2797,0.2835,0.2827,0.2919,0.2998,0.2936,0.2959,0.308,0.3171,0.2968,0.2965,0.3031,0.2894,0.2963,0.2832,0.2847,0.2604,0.2648,0.2684,0.2564,0.2273,0.2269,0.2266,0.2262,0,0,0.2673,0.2666,0.2691,0.2666,0.2711,0.2642,0.2663,0.2598,0.2613,0.2543,0.2544,0.275,0.2942,0.2524,0.2523,0.237,0.2471,0.2288,0.3203,0.2959,0.299,0.3091,0.2963,0,0,0,0,0]},{"header":{"parameterUnit":"m.s-1","parameterCategory":2,"la1":30.2991,"la2":30.254,"lo1":-89.0895,"lo2":-89.0444,"dy":0.0017,"dx":0.0017,"nx":28,"ny":28,"refTime":"2023-10-29T21:00:00:Z","depth":"2","parameterNumber":3,"parameterNumberName":"V-component_of_CURRENTS"},"data":[0,0,0,0,0,0,0,0,0,0,0,0,0,0,0,0,0,0,0,0,0,0,0,0,0,0,0,0,0,0,0,0,0,0,0,0,0,0,0,0,0,0,0,0,0,0,0,0,0,0,0,0,0,0,0,0,0,0,-0.0193,-0.0193,0,-0.0255,-0.0256,-0.0257,-0.0305,-0.0306,-0.0306,-0.0306,-0.0391,-0.0393,-0.0394,0,0,0,0,0,0,0,0,0,0,0,0,0,-0.0172,-0.0172,-0.0193,-0.0194,-0.0194,-0.0255,-0.0256,-0.0257,-0.0305,-0.0306,-0.0306,-0.0307,-0.039,-0.0392,-0.0395,0,0,0,0,0,0,0,0,0,0,0,0,0,-0.0203,-0.0172,-0.0193,-0.0225,-0.0228,-0.0255,-0.0256,-0.0257,-0.0305,-0.0306,-0.0306,-0.0307,-0.0389,-0.0392,-0.0395,-0.0401,0,0,-0.0404,-0.0405,0,0,0,0,0,0,0,0,-0.0201,-0.0204,-0.0219,-0.0223,-0.0227,-0.0272,-0.028,-0.0306,-0.0305,-0.0277,-0.0306,-0.0307,-0.0352,-0.0358,-0.037,-0.0405,-0.0409,-0.0404,-0.0406,-0.0407,-0.0408,0,0,0,0,0,0,0,-0.0199,-0.0202,-0.0219,-0.022,-0.0225,-0.0256,-0.026,-0.0285,-0.0312,-0.0279,-0.0283,-0.0288,-0.0355,-0.0367,-0.0372,-0.041,-0.0404,-0.0406,-0.0408,-0.0409,-0.0449,-0.0448,0,0,0,0,0,0,-0.0186,-0.0199,-0.0217,-0.022,-0.0214,-0.0255,-0.0261,-0.0258,-0.0311,-0.0319,-0.0288,-0.029,-0.0362,-0.0369,-0.0375,-0.0372,-0.0407,-0.0409,-0.0411,-0.0449,-0.0449,-0.0448,0,0,0,0,0,0,-0.0185,-0.0186,-0.0214,-0.0211,-0.0217,-0.0255,-0.0252,-0.0259,-0.0269,-0.0317,-0.0326,-0.029,-0.0362,-0.0371,-0.0393,-0.0376,-0.0411,-0.0413,-0.045,-0.0449,-0.0448,-0.0375,0,0,0,0,0,0,-0.0184,-0.0185,-0.0178,-0.021,-0.0216,-0.0219,-0.0251,-0.026,-0.0271,-0.0275,-0.0321,-0.033,-0.0363,-0.0388,-0.0395,-0.0381,-0.0415,-0.0451,-0.045,-0.0449,-0.0378,-0.0371,-0.0366,0,0,0,0,0,-0.0183,-0.0163,-0.0177,-0.018,-0.0205,-0.0218,-0.0224,-0.0254,-0.027,-0.0267,-0.0302,-0.0329,-0.0385,-0.039,-0.0399,-0.0384,-0.0452,-0.045,-0.0449,-0.0381,-0.0373,-0.0366,0,0,0,0,0,0,-0.0148,-0.0167,-0.0183,-0.0171,-0.019,-0.0226,-0.0224,-0.0246,-0.0271,-0.0275,-0.0324,-0.0334,-0.0347,-0.0375,-0.0378,-0.0392,-0.0422,-0.0422,-0.0367,-0.036,-0.0354,-0.0332,-0.0418,0,0,0,0,0,-0.0137,-0.0129,-0.0157,-0.0147,-0.0153,-0.0188,-0.0197,-0.0216,-0.0243,-0.0255,-0.029,-0.0323,-0.0347,-0.0361,-0.0388,-0.0395,-0.0432,-0.0391,-0.0385,-0.038,-0.0368,-0.0414,-0.041,-0.0443,-0.0443,-0.0443,0,0,-0.0122,-0.0131,-0.0127,-0.014,-0.0158,-0.0151,-0.0195,-0.0199,-0.0193,-0.0259,-0.0263,-0.0304,-0.0345,-0.0355,-0.0362,-0.0376,-0.039,-0.0378,-0.0373,-0.0364,-0.0412,-0.0409,-0.0406,-0.0442,-0.0442,-0.0443,0,0,-0.0082,-0.0094,-0.0074,-0.0084,-0.0102,-0.0119,-0.0116,-0.0147,-0.0161,-0.0173,-0.0217,-0.0247,-0.0285,-0.0311,-0.0329,-0.0304,-0.0357,-0.0313,-0.0263,-0.0308,-0.0305,-0.0304,-0.0347,-0.035,-0.0308,-0.0308,-0.0308,0,-0.0063,-0.0041,-0.0071,-0.0055,-0.0054,-0.0098,-0.0075,-0.0092,-0.0127,-0.0133,-0.0162,-0.0221,-0.0262,-0.027,-0.0266,-0.029,-0.0325,-0.0287,-0.0299,-0.0299,-0.0298,-0.0343,-0.0347,-0.0304,-0.0305,-0.0305,-0.0305,0,-0.0012,0.0006,0.0018,0.0025,0.0022,0.0036,0.001,0.0007,-0.002,-0.0047,-0.0069,-0.0132,-0.0166,-0.0186,-0.022,-0.023,-0.0259,-0.0288,-0.0317,-0.0291,-0.0339,-0.0345,-0.0299,-0.03,-0.0301,-0.0302,0,0,0.0041,0.0053,0.006,0.008,0.0068,0.0078,0.009,0.0088,0.0103,0.0049,0.0054,-0.0007,-0.0053,-0.0076,-0.0127,-0.0169,-0.0206,-0.0221,-0.0225,-0.026,-0.0306,-0.0322,-0.033,-0.024,-0.0241,-0.0241,-0.0341,0,0.0093,0.0147,0.0135,0.0189,0.0216,0.0186,0.0209,0.0197,0.0167,0.0158,0.0086,0.0065,-0.0006,-0.0023,-0.0076,-0.0168,-0.0217,-0.0176,-0.0329,-0.0333,-0.0348,-0.0336,-0.0287,-0.0371,-0.0347,-0.0348,-0.0349,0,0.0154,0.0183,0.0246,0.0284,0.0294,0.0319,0.0344,0.0353,0.0321,0.0292,0.0244,0.0182,0.0121,0.0051,-0.0094,-0.0065,-0.0175,-0.0258,-0.0264,-0.0306,-0.0359,-0.0394,-0.0383,-0.0359,-0.0358,-0.0357,-0.0356,0,0.022,0.0266,0.0325,0.0335,0.0366,0.0395,0.0409,0.0397,0.0419,0.0372,0.0374,0.0277,0.0241,0.0096,-0.0077,-0.0087,-0.0246,-0.0285,-0.0405,-0.0408,-0.0408,-0.041,-0.0394,-0.0394,-0.0393,-0.0393,-0.0393,0,0.0289,0.0336,0.0365,0.04,0.048,0.0467,0.0536,0.0527,0.0528,0.0569,0.045,0.0461,0.025,0.0135,-0.0041,-0.0232,-0.0223,-0.039,-0.0431,-0.0381,-0.0379,-0.0401,-0.0401,-0.0397,-0.0396,-0.0395,-0.0395,0,0.0354,0.0371,0.0444,0.0494,0.0517,0.0572,0.063,0.0679,0.0656,0.0704,0.0698,0.0599,0.0454,0.0231,-0.0004,-0.0169,-0.0364,-0.0441,-0.0366,-0.0397,-0.0507,-0.0501,-0.0577,-0.0578,-0.0579,-0.058,-0.0581,0,0.0393,0.0441,0.0519,0.0571,0.0599,0.0672,0.0737,0.0745,0.0798,0.0803,0.0845,0.0723,0.0669,0.0312,-0.0004,-0.0313,-0.0367,-0.0487,-0.0501,-0.0491,-0.0524,-0.0517,-0.051,-0.0479,-0.0478,-0.0478,-0.0478,0,0.0471,0.0499,0.0559,0.0667,0.0747,0.0834,0.0918,0.0985,0.1011,0.1054,0.1093,0.1052,0.0727,0.0435,-0.0003,-0.0212,-0.0434,-0.0495,-0.0507,-0.0433,-0.0405,-0.0436,-0.0431,-0.0477,-0.0478,-0.0478,-0.0478,-0.0478,0.0531,0.0586,0.067,0.0773,0.0868,0.0987,0.1073,0.1169,0.1278,0.1348,0.1292,0.1236,0.0887,0.0354,-0.0022,-0.0424,-0.0411,-0.0552,-0.0549,-0.0548,-0.0512,-0.0487,-0.0568,-0.0568,-0.0569,-0.0569,-0.057,0,0.061,0.0665,0.0768,0.0894,0.1018,0.1042,0.1196,0.1295,0.1445,0.1483,0.1506,0.1211,0.0854,0.0443,-0.0135,-0.0484,-0.0509,-0.0602,-0.0549,-0.0547,-0.0545,-0.0508,-0.0565,-0.0566,-0.0567,-0.0568,0,0,0.0652,0.0764,0.0818,0.1015,0.1097,0.1271,0.1365,0.1505,0.1579,0.1642,0.1597,0.1471,0.0986,0.057,0.0096,-0.0235,-0.0316,-0.0305,-0.0269,-0.0148,-0.0143,-0.0474,-0.0409,0,0,0,0,0]}],[{"header":{"parameterUnit":"m.s-1","parameterCategory":2,"la1":30.2991,"la2":30.254,"lo1":-89.0895,"lo2":-89.0444,"dy":0.0017,"dx":0.0017,"nx":28,"ny":28,"refTime":"2023-10-29T21:00:00:Z","depth":"4","parameterNumber":2,"parameterNumberName":"U-component_of_CURRENTS"},"data":[0,0,0,0,0,0,0,0,0,0,0,0,0,0,0,0,0,0,0,0,0,0,0,0,0,0,0,0,0,0,0,0,0,0,0,0,0,0,0,0,0,0,0,0,0,0,0,0,0,0,0,0,0,0,0,0,0,0,0.1861,0.1862,0,0.1949,0.195,0.195,0.2016,0.2017,0.2018,0.2019,0.2112,0.2114,0.2115,0,0,0,0,0,0,0,0,0,0,0,0,0,0.174,0.1742,0.1861,0.1862,0.1864,0.1949,0.195,0.1951,0.2016,0.2017,0.2018,0.2019,0.2111,0.2113,0.2115,0,0,0,0,0,0,0,0,0,0,0,0,0,0.1805,0.1743,0.1861,0.1908,0.1914,0.1949,0.195,0.1951,0.2016,0.2017,0.2018,0.2019,0.2111,0.2113,0.2116,0.2108,0,0,0.2124,0.2125,0,0,0,0,0,0,0,0,0.1801,0.1809,0.19,0.1905,0.1911,0.1975,0.1942,0.2004,0.2016,0.1975,0.2019,0.202,0.2067,0.2073,0.2084,0.2112,0.2116,0.2124,0.2126,0.2127,0.2127,0,0,0,0,0,0,0,0.1796,0.1805,0.1894,0.1901,0.1908,0.1922,0.1932,0.1953,0.2011,0.1978,0.1984,0.1997,0.207,0.2081,0.2087,0.2118,0.2124,0.2126,0.2128,0.2129,0.2269,0.2271,0,0,0,0,0,0,0.179,0.1801,0.1891,0.1896,0.186,0.1923,0.1935,0.1951,0.2011,0.2022,0.1996,0.2,0.2076,0.2084,0.209,0.2198,0.2127,0.2129,0.2131,0.2266,0.2269,0.2271,0,0,0,0,0,0,0.1787,0.1797,0.1887,0.1852,0.1865,0.1924,0.1942,0.1952,0.2007,0.2025,0.2036,0.2045,0.2077,0.2087,0.215,0.2197,0.213,0.2133,0.2264,0.2267,0.227,0.2339,0,0,0,0,0,0,0.1783,0.1795,0.1824,0.1852,0.1867,0.1935,0.1942,0.1953,0.2011,0.2018,0.2069,0.2077,0.2079,0.2146,0.2153,0.22,0.2135,0.2261,0.2265,0.2269,0.2334,0.2345,0.2353,0,0,0,0,0,0.1778,0.1805,0.1825,0.1837,0.1898,0.1937,0.1946,0.199,0.2013,0.2042,0.2082,0.2078,0.2177,0.215,0.2157,0.2206,0.2259,0.2264,0.2269,0.233,0.2343,0.2353,0,0,0,0,0,0,0.1768,0.1816,0.1837,0.1879,0.192,0.195,0.1988,0.2013,0.2067,0.2088,0.2102,0.2112,0.2187,0.2187,0.2157,0.2259,0.2218,0.2225,0.2263,0.2274,0.2284,0.229,0.2137,0,0,0,0,0,0.1778,0.1818,0.1855,0.1896,0.1919,0.1961,0.1991,0.2021,0.2062,0.2089,0.2125,0.2165,0.2204,0.2233,0.2263,0.2315,0.2318,0.2353,0.2362,0.237,0.2382,0.2423,0.2437,0.2287,0.2287,0.2287,0,0,0.1786,0.182,0.1843,0.1898,0.1936,0.1975,0.1984,0.2041,0.2086,0.2089,0.2174,0.2202,0.2226,0.229,0.2323,0.2301,0.2416,0.2377,0.2383,0.239,0.243,0.2444,0.2457,0.2291,0.229,0.2289,0,0,0.1807,0.1854,0.1889,0.1927,0.199,0.2015,0.204,0.2095,0.2138,0.2207,0.2227,0.2286,0.2344,0.2372,0.2391,0.247,0.2465,0.2488,0.2543,0.2583,0.2596,0.2606,0.263,0.2642,0.2492,0.2492,0.2492,0,0.1818,0.1867,0.1906,0.1948,0.1989,0.2037,0.2082,0.2126,0.2198,0.224,0.2247,0.2359,0.238,0.2457,0.249,0.2492,0.2511,0.2495,0.2595,0.2606,0.2616,0.2637,0.265,0.2496,0.2496,0.2495,0.2495,0,0.1852,0.1908,0.1936,0.2006,0.2051,0.2103,0.216,0.2223,0.2279,0.2318,0.242,0.2454,0.2521,0.254,0.2542,0.2633,0.2622,0.26,0.2562,0.2635,0.2653,0.2665,0.2502,0.25,0.2499,0.2498,0,0,0.1829,0.1939,0.1953,0.1998,0.2091,0.2124,0.2214,0.2297,0.2361,0.2437,0.2518,0.2595,0.2627,0.2651,0.267,0.2707,0.2792,0.2696,0.2696,0.2712,0.2884,0.2725,0.2722,0.2795,0.2797,0.2799,0.2868,0,0.185,0.193,0.1987,0.2074,0.2118,0.22,0.2271,0.2355,0.2432,0.252,0.2581,0.2662,0.2665,0.2711,0.2756,0.2791,0.2829,0.2776,0.2817,0.2818,0.2662,0.2732,0.2807,0.2877,0.2879,0.2881,0.2883,0,0.1856,0.1915,0.2002,0.2111,0.214,0.2206,0.2335,0.2407,0.2534,0.2593,0.2691,0.2739,0.284,0.2813,0.2919,0.2892,0.2903,0.291,0.2912,0.2748,0.2681,0.279,0.2904,0.2902,0.2901,0.2899,0.2898,0,0.1802,0.1921,0.1994,0.2034,0.2163,0.2235,0.2314,0.2441,0.2517,0.2655,0.2723,0.2831,0.2906,0.295,0.2997,0.2972,0.3084,0.3039,0.2902,0.2891,0.2981,0.2969,0.3098,0.3098,0.3098,0.3098,0.3097,0,0.1781,0.1844,0.1985,0.2025,0.2116,0.222,0.2335,0.2424,0.2568,0.265,0.2768,0.284,0.295,0.3027,0.3036,0.3016,0.3122,0.2926,0.2903,0.3009,0.2999,0.299,0.2976,0.31,0.31,0.3099,0.3099,0,0.1705,0.1803,0.1891,0.2043,0.2095,0.2164,0.2341,0.2414,0.2563,0.268,0.2732,0.2889,0.2978,0.3059,0.3131,0.3053,0.3048,0.3009,0.3135,0.3116,0.2816,0.2806,0.2851,0.2846,0.2841,0.2838,0.2835,0,0.1669,0.1712,0.188,0.1936,0.2018,0.2141,0.2219,0.2389,0.2464,0.2681,0.2715,0.2875,0.2954,0.2929,0.3022,0.3029,0.2992,0.2964,0.287,0.2819,0.2794,0.279,0.2786,0.2828,0.2827,0.2826,0.2825,0,0.1593,0.1676,0.1746,0.1858,0.1959,0.2049,0.218,0.2214,0.2401,0.2569,0.2628,0.2679,0.2774,0.2819,0.2856,0.2851,0.2966,0.2919,0.2926,0.2837,0.2793,0.2771,0.2771,0.2811,0.2813,0.2814,0.2815,0,0.1538,0.1563,0.1668,0.1753,0.1864,0.1913,0.2002,0.2089,0.218,0.241,0.2427,0.2589,0.2742,0.2729,0.2763,0.2754,0.27,0.2592,0.2615,0.2632,0.253,0.2439,0.234,0,0,0,0,0,0.1463,0.1479,0.1551,0.1626,0.173,0.1798,0.1948,0.2041,0.2219,0.2201,0.2306,0.2378,0.2435,0.2522,0.2467,0.2671,0.2712,0.2596,0.2599,0.273,0.2747,0.2648,0,0,0,0,0,0,0.1412,0.1469,0.1498,0.1499,0.1528,0.1624,0.1712,0.1843,0.184,0.2031,0.2073,0.2232,0.2321,0.2435,0.2418,0.2446,0.2399,0.2709,0.2703,0.2721,0.2736,0.2749,0.2653,0,0,0,0,0]},{"header":{"parameterUnit":"m.s-1","parameterCategory":2,"la1":30.2991,"la2":30.254,"lo1":-89.0895,"lo2":-89.0444,"dy":0.0017,"dx":0.0017,"nx":28,"ny":28,"refTime":"2023-10-29T21:00:00:Z","depth":"4","parameterNumber":3,"parameterNumberName":"V-component_of_CURRENTS"},"data":[0,0,0,0,0,0,0,0,0,0,0,0,0,0,0,0,0,0,0,0,0,0,0,0,0,0,0,0,0,0,0,0,0,0,0,0,0,0,0,0,0,0,0,0,0,0,0,0,0,0,0,0,0,0,0,0,0,0,0.0152,0.0151,0,0.01,0.0099,0.0099,0.0061,0.0061,0.0061,0.0061,-0.0009,-0.0011,-0.0012,0,0,0,0,0,0,0,0,0,0,0,0,0,0.0186,0.0186,0.0152,0.0151,0.0151,0.01,0.0099,0.0099,0.0061,0.0061,0.0061,0.0061,-0.0009,-0.0011,-0.0012,0,0,0,0,0,0,0,0,0,0,0,0,0,0.0156,0.0186,0.0152,0.0127,0.0124,0.01,0.0099,0.0098,0.0061,0.0061,0.0061,0.006,-0.0008,-0.001,-0.0013,-0.0021,0,0,-0.002,-0.0021,0,0,0,0,0,0,0,0,0.0157,0.0154,0.0131,0.0128,0.0125,0.0088,0.0086,0.0058,0.0062,0.0084,0.0061,0.006,0.0022,0.0017,0.0007,-0.0024,-0.0027,-0.0021,-0.0022,-0.0023,-0.0024,0,0,0,0,0,0,0,0.016,0.0156,0.0131,0.0131,0.0127,0.0107,0.0102,0.008,0.0055,0.0082,0.008,0.0075,0.002,0.001,0.0005,-0.0028,-0.002,-0.0023,-0.0024,-0.0025,-0.008,-0.008,0,0,0,0,0,0,0.017,0.0158,0.0132,0.0129,0.0142,0.0107,0.0102,0.0099,0.0055,0.0049,0.0076,0.0074,0.0014,0.0008,0.0003,-0.001,-0.0023,-0.0025,-0.0027,-0.008,-0.008,-0.008,0,0,0,0,0,0,0.0171,0.0168,0.0134,0.0143,0.0137,0.0107,0.0104,0.0099,0.0088,0.0051,0.0044,0.0072,0.0014,0.0006,-0.0017,-0.0013,-0.0026,-0.0029,-0.008,-0.008,-0.008,-0.0035,0,0,0,0,0,0,0.0172,0.0169,0.0173,0.0144,0.0137,0.0125,0.0105,0.0098,0.0086,0.0083,0.0045,0.0038,0.0013,-0.0013,-0.0019,-0.0016,-0.0031,-0.008,-0.008,-0.008,-0.0036,-0.0033,-0.0031,0,0,0,0,0,0.0173,0.0183,0.0174,0.0171,0.0144,0.0126,0.0121,0.0097,0.0087,0.0085,0.0057,0.0039,-0.0017,-0.0015,-0.0022,-0.002,-0.008,-0.008,-0.008,-0.0038,-0.0034,-0.0031,0,0,0,0,0,0,0.02,0.0179,0.0169,0.0171,0.0152,0.012,0.0119,0.0101,0.0078,0.0077,0.0039,0.003,0.0012,-0.0011,-0.0007,-0.0036,-0.0052,-0.0053,-0.0017,-0.0013,-0.0011,0.0009,-0.0033,0,0,0,0,0,0.0209,0.021,0.0184,0.0186,0.018,0.015,0.0141,0.0125,0.01,0.0089,0.006,0.0031,0.0006,-0.0008,-0.0033,-0.0048,-0.0077,-0.0052,-0.0049,-0.0047,-0.0036,-0.0084,-0.0084,-0.008,-0.008,-0.008,0,0,0.0221,0.0209,0.0211,0.0192,0.0177,0.0175,0.0144,0.0135,0.0133,0.0086,0.0075,0.0041,0.0004,-0.0014,-0.0024,-0.0032,-0.0063,-0.0047,-0.0044,-0.0035,-0.0084,-0.0084,-0.0085,-0.008,-0.008,-0.008,0,0,0.0246,0.0235,0.0245,0.0233,0.0214,0.0197,0.0197,0.0166,0.0153,0.0135,0.0101,0.007,0.0034,0.0005,-0.0013,-0.0009,-0.0046,-0.0017,0.0012,-0.0034,-0.0035,-0.0036,-0.0072,-0.0077,-0.0016,-0.0016,-0.0016,0,0.0262,0.0269,0.0245,0.0249,0.0247,0.0211,0.0221,0.0203,0.0168,0.0159,0.014,0.008,0.0044,0.0021,0.0019,-0.0002,-0.0031,0.0003,-0.003,-0.0031,-0.0033,-0.0071,-0.0076,-0.0014,-0.0014,-0.0015,-0.0015,0,0.029,0.0298,0.0303,0.03,0.0293,0.0296,0.027,0.0261,0.0239,0.0213,0.0184,0.0129,0.0094,0.0073,0.0046,0.0019,0.0002,-0.002,-0.0036,-0.0031,-0.0071,-0.0077,-0.0011,-0.0012,-0.0012,-0.0013,0,0,0.0326,0.0325,0.0328,0.0341,0.0321,0.0323,0.0322,0.0309,0.0313,0.0265,0.026,0.0199,0.0164,0.0141,0.0096,0.0052,0.0007,0.0016,0.0012,-0.0015,-0.009,-0.0089,-0.0097,-0.0023,-0.0023,-0.0024,-0.0113,0,0.0358,0.0384,0.0371,0.0402,0.0416,0.039,0.0397,0.0379,0.0349,0.0333,0.027,0.0245,0.0191,0.0175,0.0121,0.004,-0.0008,0.0034,-0.0095,-0.0098,-0.0095,-0.0104,-0.0027,-0.0118,-0.0119,-0.0121,-0.0121,0,0.0392,0.0407,0.0444,0.0464,0.0469,0.0484,0.0491,0.0489,0.0452,0.0426,0.038,0.0327,0.0263,0.0214,0.0078,0.0108,0.0017,-0.0054,-0.0059,-0.0076,-0.011,-0.0126,-0.0134,-0.0133,-0.0132,-0.0131,-0.013,0,0.0438,0.0461,0.0498,0.0503,0.0517,0.0537,0.0544,0.0522,0.0531,0.0485,0.0482,0.0388,0.0353,0.0228,0.0082,0.0077,-0.007,-0.0098,-0.0185,-0.0186,-0.018,-0.0178,-0.02,-0.02,-0.02,-0.0199,-0.0199,0,0.0477,0.051,0.053,0.0553,0.0608,0.0594,0.064,0.0626,0.0618,0.0634,0.0539,0.0529,0.0353,0.0248,0.0105,-0.0053,-0.0058,-0.0177,-0.021,-0.0159,-0.0154,-0.0185,-0.0182,-0.0203,-0.0202,-0.0201,-0.0201,0,0.052,0.0531,0.0582,0.0616,0.0634,0.0674,0.0717,0.0747,0.0725,0.0743,0.0736,0.0634,0.0495,0.0314,0.0107,-0.001,-0.0172,-0.0231,-0.0152,-0.0179,-0.0263,-0.0257,-0.0333,-0.0333,-0.0334,-0.0335,-0.0335,0,0.0541,0.0575,0.0637,0.0676,0.0698,0.0754,0.0801,0.0804,0.0832,0.0809,0.0826,0.0706,0.0614,0.0339,0.0132,-0.014,-0.0186,-0.0272,-0.0281,-0.0253,-0.0277,-0.027,-0.0263,-0.0336,-0.0336,-0.0336,-0.0337,0,0.0586,0.0615,0.0657,0.0741,0.0805,0.0868,0.0927,0.0956,0.096,0.0948,0.0901,0.0749,0.0591,0.0356,0.0141,-0.0057,-0.0216,-0.0279,-0.028,-0.0289,-0.0258,-0.028,-0.0272,-0.0339,-0.0338,-0.0338,-0.0338,0,0.0626,0.0665,0.073,0.0802,0.0886,0.0957,0.0979,0.1011,0.1035,0.0999,0.0984,0.0801,0.069,0.0399,0.0205,0.0007,-0.0051,-0.0122,-0.0132,-0.0132,-0.0055,0.0015,-0.0006,0,0,0,0,0,0.0658,0.0707,0.0781,0.0864,0.0947,0.0997,0.1058,0.1069,0.1076,0.1057,0.1018,0.0868,0.0575,0.0452,0.0256,0.0178,-0.0093,-0.006,-0.0181,-0.0351,-0.0348,-0.0292,0,0,0,0,0,0,0.0683,0.0756,0.0789,0.0905,0.097,0.1068,0.1111,0.111,0.109,0.1062,0.0915,0.0824,0.0545,0.0699,0.0259,0.0197,0.0092,-0.0199,-0.0204,-0.0352,-0.035,-0.0348,-0.029,0,0,0,0,0]}]]